星链-4651 (STARLINK-4651 )

导读 | 星芒AI

STARLINK-4651 是 SpaceX Starlink 项目中的一颗低轨通信卫星,属于该星座的第 21 批次发射任务。该卫星运行在约 550 公里的高度,旨在为全球用户提供高速互联网服务。Starlink 卫星采用先进推进系统和激光通信技术,以提升网络稳定性和减少延迟。STARLINK-4651 与其他卫星协同工作,支持偏远地区通信,增强全球网络覆盖能力。

基本信息
目录编号:
53729
目录名称:
STARLINK-4651
国际标识:
2022-107AF
轨道中心:
EARTH
卫星名称:
星链-4651
卫星全名:
星链-4651 (STARLINK-4651 )
卫星状态:
在轨 (已飞行1203 天)
发射日期:
2022-09-05 UTC
国别 :
美国 (US)
星等 :
--
轨道信息
数据来源 国际轨道数据 AOE轨道数据
星历时间 2025-12-21T08:10:25+0800
8小时前
查看轨道信息
2025-12-20T09:00:00+0800
1天前
查看轨道信息
半长轴 6917.882km 6917.892km
偏心率 0.0001439 0.0001345
轨道倾角 53.217° 53.216°
近地点辐角 83.310° 75.746°
升交点赤经 247.452° 251.787°
平近点角 276.805° 76.699°
近地点 538.749km 538.824km
远地点 540.741km 540.686km
周期 95.438分钟 95.438分钟
每日圈数 15.088395 15.088364
详细信息
固有亮度:
5
最大亮度:
2.5
卫星平台:
Starlink v1.5
覆盖范围:
全球
运营商:
太空探索技术公司
运营商所在国:
美国
制造商(研发单位):
太空探索技术公司
制造商所在国:
美国
使用方式:
暂无
卫星简介
星链(Starlink)计划是由太空探索技术公司(SpaceX)提出的一个巨型低轨卫星互联网星座项目,计划在2019年至2024年间在太空搭建由约1.2万颗卫星组成的“星链”网络,其中1584颗将部署在地球上空550千米处的近地轨道,并从2020年开始工作。该卫星仍在工作。
2D轨道图
3D轨道图
轨道高度分析图
轨道倾角分析图
轨道综合分析图
查看轨道综合分析图